• In Hungary
  • List of Countries
  • For 7 days
  • Water Temperature
  • Satellite Maps
  • Weather Map
  • News
  • Weather Widgets
  • user-avatar
    Login

    Hourly Weather San Fernando de Henares

    Today, 14 November, Wednesday

    Time Temperature Precipitation Wind Pressure Humidity
    00:00 +12°C° 0 mm 2 mps 716 mmHg 86%
    01:00 +12°C° 0 mm 2 mps 716 mmHg 86%
    02:00 +12°C° 0 mm 2 mps 715 mmHg 87%
    03:00 +12°C° 0 mm 2 mps 715 mmHg 88%
    04:00 +12°C° 0 mm 2 mps 715 mmHg 87%
    05:00 +10°C° 0 mm 2 mps 715 mmHg 87%
    06:00 +10°C° 0 mm 2 mps 715 mmHg 87%
    07:00 +12°C° 0 mm 2 mps 715 mmHg 82%
    08:00 +12°C° 0 mm 3 mps 715 mmHg 77%
    09:00 +13°C° 0 mm 3 mps 715 mmHg 73%
    10:00 +14°C° 0 mm 3 mps 715 mmHg 68%
    11:00 +17°C° 0 mm 3 mps 714 mmHg 63%
    12:00 +18°C° 0 mm 4 mps 714 mmHg 58%
    13:00 +18°C° 0 mm 4 mps 714 mmHg 57%
    14:00 +19°C° 0 mm 4 mps 713 mmHg 57%
    15:00 +19°C° 0 mm 4 mps 713 mmHg 56%
    16:00 +18°C° 0.2 mm 3 mps 712 mmHg 62%
    17:00 +17°C° 0.2 mm 3 mps 712 mmHg 68%
    18:00 +14°C° 0.2 mm 3 mps 712 mmHg 74%
    19:00 +14°C° 0.3 mm 3 mps 712 mmHg 77%
    20:00 +13°C° 0.3 mm 3 mps 712 mmHg 80%
    21:00 +13°C° 0.3 mm 3 mps 712 mmHg 83%
    22:00 +12°C° 0 mm 3 mps 712 mmHg 84%
    23:00 +12°C° 0 mm 3 mps 712 mmHg 85%

    Tomorrow, 15 November, Thursday

    Time Temperature Precipitation Wind Pressure Humidity
    00:00 +12°C° 0 mm 3 mps 712 mmHg 86%
    01:00 +12°C° 0 mm 3 mps 711 mmHg 87%
    02:00 +11°C° 0 mm 3 mps 711 mmHg 87%
    03:00 +11°C° 0 mm 3 mps 711 mmHg 88%
    04:00 +11°C° 0 mm 3 mps 711 mmHg 88%
    05:00 +11°C° 0 mm 3 mps 711 mmHg 87%
    06:00 +11°C° 0 mm 3 mps 711 mmHg 87%
    07:00 +12°C° 0 mm 3 mps 711 mmHg 84%
    08:00 +12°C° 0 mm 3 mps 711 mmHg 81%
    09:00 +13°C° 0 mm 3 mps 712 mmHg 79%
    10:00 +14°C° 0 mm 3 mps 711 mmHg 74%
    11:00 +16°C° 0 mm 3 mps 711 mmHg 70%
    12:00 +17°C° 0 mm 3 mps 711 mmHg 66%
    13:00 +17°C° 0.2 mm 3 mps 711 mmHg 64%
    14:00 +17°C° 0.2 mm 3 mps 711 mmHg 62%
    15:00 +18°C° 0.2 mm 2 mps 711 mmHg 60%
    16:00 +17°C° 0.2 mm 2 mps 711 mmHg 65%
    17:00 +16°C° 0.2 mm 2 mps 711 mmHg 70%
    18:00 +15°C° 0.2 mm 2 mps 711 mmHg 74%
    19:00 +15°C° 0 mm 2 mps 712 mmHg 76%
    20:00 +14°C° 0 mm 2 mps 712 mmHg 77%
    21:00 +13°C° 0 mm 3 mps 712 mmHg 79%
    22:00 +13°C° 0 mm 3 mps 712 mmHg 81%
    23:00 +12°C° 0 mm 3 mps 712 mmHg 83%

    Day after tomorrow, 16 November, Friday

    Time Temperature Precipitation Wind Pressure Humidity
    00:00 +12°C° 0 mm 3 mps 712 mmHg 85%
    01:00 +12°C° 0 mm 3 mps 712 mmHg 85%
    02:00 +12°C° 0 mm 3 mps 712 mmHg 86%
    03:00 +11°C° 0 mm 3 mps 712 mmHg 86%
    04:00 +12°C° 0 mm 2 mps 712 mmHg 86%
    05:00 +12°C° 0 mm 2 mps 712 mmHg 86%
    06:00 +12°C° 0 mm 2 mps 712 mmHg 86%
    07:00 +11°C° 0 mm 3 mps 713 mmHg 82%
    08:00 +12°C° 0 mm 3 mps 713 mmHg 78%
    09:00 +13°C° 0 mm 3 mps 713 mmHg 73%
    10:00 +14°C° 0 mm 3 mps 713 mmHg 69%
    11:00 +15°C° 0 mm 4 mps 712 mmHg 64%
    12:00 +18°C° 0 mm 4 mps 712 mmHg 60%
    13:00 +18°C° 0 mm 4 mps 712 mmHg 59%
    14:00 +18°C° 0 mm 4 mps 712 mmHg 57%
    15:00 +18°C° 0 mm 4 mps 711 mmHg 56%
    16:00 +17°C° 0 mm 3 mps 711 mmHg 62%
    17:00 +16°C° 0 mm 3 mps 711 mmHg 67%
    18:00 +14°C° 0 mm 3 mps 711 mmHg 73%
    19:00 +13°C° 0 mm 3 mps 711 mmHg 75%
    20:00 +13°C° 0 mm 3 mps 712 mmHg 78%
    21:00 +12°C° 0 mm 3 mps 712 mmHg 80%
    22:00 +12°C° 0 mm 3 mps 712 mmHg 81%
    23:00 +12°C° 0 mm 3 mps 712 mmHg 82%

    17 November, Saturday

    Time Temperature Precipitation Wind Pressure Humidity
    00:00 +12°C° 0 mm 3 mps 712 mmHg 83%
    01:00 +12°C° 0 mm 3 mps 712 mmHg 84%
    02:00 +11°C° 0 mm 3 mps 712 mmHg 86%
    03:00 +11°C° 0 mm 3 mps 711 mmHg 87%
    04:00 +11°C° 0 mm 3 mps 711 mmHg 87%
    05:00 +11°C° 0 mm 3 mps 711 mmHg 87%
    06:00 +10°C° 0 mm 3 mps 711 mmHg 88%
    07:00 +11°C° 0 mm 3 mps 711 mmHg 84%
    08:00 +12°C° 0 mm 3 mps 711 mmHg 81%
    09:00 +12°C° 0 mm 3 mps 711 mmHg 77%
    10:00 +13°C° 0 mm 3 mps 711 mmHg 73%
    11:00 +14°C° 0 mm 3 mps 711 mmHg 68%
    12:00 +16°C° 0 mm 3 mps 711 mmHg 64%
    13:00 +16°C° 0 mm 3 mps 710 mmHg 62%
    14:00 +17°C° 0 mm 3 mps 710 mmHg 61%
    15:00 +17°C° 0 mm 3 mps 709 mmHg 60%
    16:00 +16°C° 0 mm 3 mps 709 mmHg 65%
    17:00 +14°C° 0 mm 3 mps 709 mmHg 69%
    18:00 +13°C° 0 mm 3 mps 709 mmHg 73%
    19:00 +13°C° 0 mm 3 mps 709 mmHg 75%
    20:00 +12°C° 0 mm 4 mps 709 mmHg 78%
    21:00 +12°C° 0 mm 4 mps 709 mmHg 80%
    22:00 +11°C° 0 mm 4 mps 709 mmHg 82%
    23:00 +11°C° 0 mm 4 mps 709 mmHg 83%

    18 November, Sunday

    Time Temperature Precipitation Wind Pressure Humidity
    00:00 +11°C° 0 mm 3 mps 708 mmHg 84%
    01:00 +10°C° 0 mm 3 mps 708 mmHg 84%
    02:00 +10°C° 0 mm 3 mps 708 mmHg 84%
    03:00 +10°C° 0 mm 3 mps 707 mmHg 84%
    04:00 +10°C° 0 mm 4 mps 707 mmHg 84%
    05:00 +10°C° 0 mm 4 mps 707 mmHg 83%
    06:00 +10°C° 0 mm 4 mps 707 mmHg 82%
    07:00 +10°C° 0 mm 4 mps 707 mmHg 79%
    08:00 +11°C° 0 mm 4 mps 707 mmHg 77%
    09:00 +11°C° 0 mm 4 mps 707 mmHg 74%
    10:00 +12°C° 0 mm 5 mps 706 mmHg 70%
    11:00 +13°C° 0 mm 5 mps 706 mmHg 66%
    12:00 +14°C° 0 mm 5 mps 706 mmHg 62%
    13:00 +13°C° 0 mm 4 mps 705 mmHg 63%
    14:00 +13°C° 0 mm 4 mps 705 mmHg 64%
    15:00 +13°C° 0 mm 4 mps 704 mmHg 65%
    16:00 +13°C° 0.1 mm 4 mps 704 mmHg 68%
    17:00 +12°C° 0.1 mm 4 mps 704 mmHg 71%
    18:00 +12°C° 0.1 mm 4 mps 704 mmHg 75%
    19:00 +11°C° 0.1 mm 4 mps 704 mmHg 76%
    20:00 +11°C° 0.1 mm 4 mps 704 mmHg 77%
    21:00 +10°C° 0.1 mm 5 mps 704 mmHg 78%
    22:00 +10°C° 0.6 mm 5 mps 704 mmHg 80%
    23:00 +9°C° 0.6 mm 5 mps 704 mmHg 81%

    19 November, Monday

    Time Temperature Precipitation Wind Pressure Humidity
    00:00 +9°C° 0.6 mm 5 mps 704 mmHg 83%
    01:00 +9°C° 1.4 mm 5 mps 703 mmHg 84%
    02:00 +9°C° 1.4 mm 5 mps 703 mmHg 85%
    03:00 +9°C° 1.4 mm 5 mps 703 mmHg 86%
    04:00 +10°C° 1.4 mm 4 mps 703 mmHg 86%
    05:00 +10°C° 1.4 mm 4 mps 703 mmHg 86%
    06:00 +10°C° 1.4 mm 4 mps 703 mmHg 87%
    07:00 +10°C° 0.7 mm 4 mps 703 mmHg 86%
    08:00 +10°C° 0.7 mm 4 mps 703 mmHg 85%
    09:00 +10°C° 0.7 mm 4 mps 703 mmHg 84%
    10:00 +11°C° 0.3 mm 3 mps 703 mmHg 81%
    11:00 +12°C° 0.3 mm 3 mps 703 mmHg 78%
    12:00 +12°C° 0.3 mm 3 mps 703 mmHg 75%
    13:00 +12°C° 0.4 mm 3 mps 703 mmHg 75%
    14:00 +12°C° 0.4 mm 3 mps 703 mmHg 74%
    15:00 +12°C° 0.4 mm 3 mps 702 mmHg 74%
    16:00 +12°C° 0.3 mm 3 mps 702 mmHg 77%
    17:00 +12°C° 0.3 mm 2 mps 703 mmHg 80%
    18:00 +12°C° 0.3 mm 2 mps 703 mmHg 83%
    19:00 +12°C° 0 mm 2 mps 703 mmHg 83%
    20:00 +10°C° 0 mm 2 mps 703 mmHg 84%
    21:00 +10°C° 0 mm 2 mps 704 mmHg 84%
    22:00 +11°C° 0 mm 1 mps 704 mmHg 84%
    23:00 +11°C° 0 mm 1 mps 704 mmHg 85%
    Show more